This is the latest recevied weather packets stored in our database for station/object DJ2KUA-6. If no packets are shown the sender has not sent any weather packets the latest 10 day(s).
| Time | Temp. | Humidity | Pressure | Rain* | Wind** | Luminosity | Snow |
|---|---|---|---|---|---|---|---|
| 1788093935 | 27.78° C | 52% | 1067 hPa | 0 mm | - | - | - |
| 1788091657 | 27.78° C | 52% | 1067 hPa | 0 mm | - | - | - |
| 1788090516 | 27.78° C | 53% | 1067 hPa | 0 mm | - | - | - |
| 1788089373 | 27.78° C | 52% | 1067 hPa | 0 mm | - | - | - |
| 1788088235 | 26.67° C | 55% | 1067 hPa | 0 mm | - | - | - |
| 1788087094 | 26.67° C | 53% | 1068 hPa | 0 mm | - | - | - |
| 1788085956 | 26.11° C | 55% | 1068 hPa | 0 mm | - | - | - |
| 1788084815 | 26.11° C | 55% | 1068 hPa | 0 mm | - | - | - |
| 1788083675 | 25.56° C | 56% | 1068 hPa | 0 mm | - | - | - |
| 1788082534 | 24.44° C | 57% | 1068 hPa | 0 mm | - | - | - |
| 1788081395 | 25° C | 56% | 1068 hPa | 0 mm | - | - | - |
| 1788080254 | 24.44° C | 58% | 1068 hPa | 0 mm | - | - | - |
| 1788079116 | 23.33° C | 61% | 1068 hPa | 0 mm | - | - | - |
| 1788077975 | 23.33° C | 63% | 1068 hPa | 0 mm | - | - | - |
| 1788076835 | 23.33° C | 62% | 1068 hPa | 0 mm | - | - | - |
| 1788075696 | 23.33° C | 64% | 1068 hPa | 0 mm | - | - | - |
| 1788074556 | 22.78° C | 65% | 1068 hPa | 0 mm | - | - | - |
| 1788073416 | 22.22° C | 67% | 1067 hPa | 0 mm | - | - | - |
| 1788072276 | 21.67° C | 67% | 1067 hPa | 0 mm | - | - | - |
| 1788069996 | 21.11° C | 69% | 1067 hPa | 0 mm | - | - | - |
| 1788068854 | 21.11° C | 70% | 1067 hPa | 0 mm | - | - | - |
| 1788067714 | 21.11° C | 70% | 1067 hPa | 0 mm | - | - | - |
| 1788066574 | 20.56° C | 71% | 1067 hPa | 0 mm | - | - | - |
| 1788065434 | 20.56° C | 71% | 1067 hPa | 0 mm | - | - | - |
| 1788064326 | 20.56° C | 71% | 1067 hPa | 0 mm | - | - | - |
* Rain latest hour (hover to see other rain measurements)
** Current wind speed in m/s (hover to see current wind gust speed)